Total_Precipitation_Accumulation
0.06 0.05 0.04 0.04 0.03 0.04 0.02 0.02 0.03 0.02 0.01 0.01 0.03 0.04 0.02 0.02 0.01 0.01 0.01 0.02 0.03 0.03 0.03 0.03 0.01 0.00 0.00 0.00 0.00 0.00 0.00 0.00 0.01 0.15 0.31 0.27 0.24 0.28 0.15 0.03 0.16 0.22 0.13 0.12 0.11 0.12 0.07
0.08 0.07 0.07 0.05 0.03 0.05 0.03 0.03 0.03 0.04 0.02 0.02 0.03 0.03 0.03 0.02 0.01 0.01 0.01 0.02 0.03 0.03 0.03 0.04 0.01 0.00 0.00 0.00 0.00 0.00 0.00 0.00 0.00 0.12 0.34 0.47 0.27 0.37 0.14 0.07 0.11 0.07 0.26 0.24 0.31 0.19 0.30
0.08 0.12 0.08 0.05 0.05 0.05 0.08 0.05 0.04 0.05 0.03 0.02 0.02 0.03 0.02 0.02 0.02 0.01 0.01 0.02 0.04 0.02 0.03 0.04 0.03 0.00 0.00 0.00 0.00 0.00 0.00 0.00 0.00 0.06 0.19 0.45 0.29 0.68 0.31 0.05 0.01 0.11 0.38 0.48 0.39 0.37 0.26
0.10 0.10 0.08 0.09 0.08 0.09 0.10 0.08 0.08 0.09 0.04 0.03 0.02 0.03 0.01 0.02 0.02 0.01 0.01 0.01 0.02 0.03 0.03 0.03 0.02 0.00 0.00 0.00 0.00 0.00 0.00 0.00 0.00 0.03 0.13 0.42 0.52 0.59 0.41 0.03 0.03 0.14 0.32 0.75 0.43 0.52 0.43
0.07 0.07 0.10 0.12 0.13 0.13 0.11 0.12 0.11 0.07 0.08 0.04 0.03 0.02 0.01 0.01 0.02 0.01 0.01 0.00 0.01 0.01 0.01 0.01 0.01 0.01 0.00 0.00 0.00 0.00 0.00 0.00 0.01 0.09 0.19 0.59 0.66 0.55 0.41 0.07 0.11 0.17 0.20 0.43 0.53 0.52 0.68
0.07 0.11 0.13 0.12 0.15 0.14 0.16 0.14 0.10 0.09 0.08 0.06 0.04 0.03 0.01 0.02 0.02 0.01 0.00 0.00 0.00 0.00 0.00 0.00 0.00 0.01 0.00 0.00 0.00 0.00 0.00 0.08 0.16 0.20 0.30 0.67 0.75 0.52 0.51 0.13 0.14 0.04 0.05 0.16 0.40 0.33 0.57
0.10 0.16 0.18 0.16 0.15 0.13 0.13 0.12 0.08 0.10 0.10 0.08 0.04 0.02 0.01 0.02 0.01 0.01 0.00 0.00 0.00 0.00 0.00 0.00 0.00 0.00 0.00 0.00 0.02 0.06 0.06 0.16 0.27 0.22 0.27 0.40 0.67 0.39 0.30 0.05 0.00 0.00 0.00 0.05 0.14 0.11 0.37
0.13 0.17 0.17 0.14 0.13 0.11 0.11 0.11 0.13 0.12 0.09 0.08 0.03 0.02 0.02 0.01 0.01 0.01 0.01 0.00 0.00 0.00 0.00 0.00 0.00 0.00 0.00 0.07 0.06 0.03 0.12 0.15 0.23 0.30 0.20 0.25 0.45 0.19 0.14 0.05 0.01 0.01 0.01 0.05 0.12 0.14 0.19
0.12 0.10 0.13 0.12 0.12 0.12 0.18 0.19 0.17 0.19 0.16 0.09 0.03 0.01 0.00 0.01 0.01 0.00 0.00 0.00 0.00 0.00 0.00 0.00 0.00 0.00 0.01 0.12 0.15 0.06 0.12 0.14 0.21 0.30 0.19 0.18 0.30 0.21 0.18 0.12 0.05 0.02 0.01 0.03 0.16 0.12 0.17
0.10 0.15 0.16 0.13 0.17 0.24 0.25 0.20 0.17 0.18 0.11 0.06 0.02 0.00 0.01 0.02 0.00 0.00 0.00 0.00 0.00 0.00 0.01 0.01 0.01 0.01 0.04 0.18 0.17 0.12 0.09 0.13 0.32 0.32 0.36 0.21 0.27 0.23 0.13 0.12 0.03 0.01 0.01 0.01 0.10 0.17 0.15
0.10 0.12 0.12 0.12 0.13 0.15 0.20 0.20 0.24 0.25 0.13 0.07 0.01 0.01 0.01 0.01 0.00 0.00 0.00 0.00 0.00 0.00 0.03 0.01 0.01 0.01 0.04 0.07 0.11 0.11 0.07 0.46 0.50 0.33 0.19 0.16 0.28 0.29 0.10 0.06 0.01 0.01 0.01 0.02 0.02 0.19 0.10
0.16 0.17 0.15 0.14 0.18 0.22 0.26 0.28 0.32 0.27 0.13 0.05 0.01 0.01 0.01 0.00 0.00 0.00 0.00 0.00 0.00 0.01 0.00 0.00 0.01 0.00 0.01 0.03 0.04 0.04 0.22 0.40 0.25 0.10 0.17 0.20 0.35 0.31 0.14 0.05 0.01 0.01 0.03 0.09 0.04 0.04 0.09
0.24 0.28 0.25 0.25 0.29 0.30 0.31 0.31 0.31 0.24 0.16 0.04 0.00 0.00 0.00 0.00 0.00 0.00 0.00 0.00 0.01 0.01 0.00 0.01 0.04 0.04 0.02 0.03 0.03 0.05 0.05 0.04 0.03 0.10 0.28 0.42 0.39 0.25 0.07 0.02 0.02 0.03 0.01 0.09 0.14 0.06 0.01
0.20 0.22 0.24 0.36 0.44 0.41 0.30 0.25 0.23 0.17 0.13 0.06 0.00 0.00 0.00 0.00 0.00 0.00 0.00 0.01 0.01 0.00 0.01 0.01 0.02 0.13 0.04 0.04 0.03 0.01 0.01 0.00 0.01 0.02 0.27 0.36 0.43 0.31 0.04 0.01 0.02 0.03 0.00 0.00 0.03 0.02 0.00
0.22 0.30 0.42 0.48 0.40 0.35 0.29 0.23 0.26 0.22 0.11 0.02 0.00 0.00 0.00 0.00 0.00 0.00 0.01 0.01 0.01 0.01 0.01 0.03 0.13 0.25 0.29 0.09 0.01 0.02 0.01 0.01 0.00 0.01 0.12 0.09 0.17 0.10 0.01 0.00 0.02 0.04 0.01 0.00 0.00 0.00 0.00
0.33 0.42 0.38 0.39 0.46 0.49 0.45 0.46 0.40 0.22 0.09 0.03 0.00 0.00 0.00 0.00 0.00 0.01 0.02 0.01 0.00 0.00 0.00 0.02 0.04 0.04 0.11 0.11 0.03 0.03 0.02 0.01 0.00 0.00 0.02 0.01 0.11 0.06 0.00 0.00 0.00 0.01 0.00 0.00 0.00 0.00 0.00
0.38 0.33 0.38 0.44 0.55 0.68 0.73 0.81 0.77 0.38 0.11 0.05 0.01 0.01 0.00 0.00 0.00 0.02 0.02 0.01 0.00 0.00 0.00 0.00 0.01 0.00 0.06 0.14 0.03 0.02 0.01 0.01 0.00 0.00 0.00 0.00 0.03 0.03 0.02 0.04 0.02 0.00 0.00 0.00 0.00 0.00 0.00
0.32 0.37 0.42 0.51 0.59 0.69 0.63 0.55 0.50 0.31 0.15 0.05 0.01 0.01 0.00 0.00 0.01 0.01 0.01 0.00 0.00 0.00 0.00 0.00 0.00 0.00 0.01 0.01 0.00 0.01 0.01 0.01 0.00 0.00 0.00 0.00 0.00 0.03 0.03 0.00 0.01 0.01 0.01 0.00 0.00 0.01 0.00
0.21 0.32 0.49 0.57 0.50 0.50 0.52 0.43 0.41 0.21 0.12 0.03 0.01 0.01 0.01 0.01 0.01 0.01 0.01 0.00 0.00 0.00 0.00 0.00 0.00 0.00 0.01 0.01 0.01 0.01 0.00 0.00 0.00 0.00 0.01 0.00 0.01 0.03 0.06 0.02 0.00 0.00 0.00 0.00 0.00 0.00 0.01
0.32 0.33 0.51 0.57 0.52 0.55 0.47 0.38 0.31 0.19 0.14 0.03 0.01 0.01 0.03 0.02 0.00 0.00 0.00 0.00 0.00 0.00 0.00 0.00 0.00 0.00 0.00 0.00 0.00 0.00 0.00 0.00 0.00 0.00 0.00 0.00 0.00 0.01 0.02 0.01 0.00 0.00 0.00 0.00 0.01 0.01 0.00
0.40 0.52 0.63 0.74 0.65 0.68 0.58 0.41 0.29 0.19 0.10 0.03 0.01 0.00 0.00 0.01 0.00 0.00 0.00 0.00 0.01 0.00 0.00 0.00 0.00 0.00 0.00 0.00 0.00 0.00 0.00 0.00 0.00 0.00 0.00 0.00 0.00 0.00 0.00 0.00 0.00 0.00 0.00 0.00 0.00 0.00 0.00
0.59 0.85 0.93 1.20 1.02 0.96 0.82 0.52 0.32 0.16 0.11 0.03 0.01 0.00 0.00 0.00 0.00 0.00 0.00 0.00 0.01 0.00 0.00 0.00 0.00 0.00 0.00 0.00 0.00 0.00 0.00 0.00 0.00 0.00 0.00 0.00 0.00 0.00 0.00 0.00 0.00 0.00 0.00 0.00 0.00 0.00 0.00
0.78 0.86 0.86 1.00 0.90 0.85 0.79 0.54 0.28 0.15 0.09 0.03 0.00 0.00 0.00 0.00 0.00 0.00 0.00 0.00 0.00 0.00 0.00 0.00 0.00 0.00 0.00 0.00 0.00 0.00 0.00 0.00 0.00 0.00 0.00 0.00 0.00 0.00 0.00 0.00 0.00 0.00 0.00 0.00 0.00 0.00 0.00
0.63 0.76 0.78 0.84 0.82 0.77 0.77 0.55 0.34 0.22 0.06 0.00 0.00 0.00 0.00 0.00 0.00 0.00 0.00 0.00 0.00 0.00 0.00 0.00 0.00 0.00 0.00 0.00 0.00 0.00 0.00 0.00 0.00 0.00 0.00 0.00 0.00 0.00 0.00 0.00 0.00 0.00 0.00 0.00 0.00 0.00 0.00
0.67 0.83 0.86 0.97 0.83 0.62 0.49 0.37 0.33 0.25 0.07 0.00 0.00 0.00 0.00 0.00 0.00 0.00 0.00 0.00 0.00 0.00 0.00 0.00 0.00 0.00 0.00 0.00 0.00 0.00 0.00 0.00 0.00 0.00 0.00 0.00 0.00 0.00 0.00 0.00 0.00 0.00 0.00 0.00 0.00 0.00 0.00
0.49 0.72 0.98 1.05 0.92 0.64 0.51 0.32 0.25 0.17 0.05 0.00 0.00 0.00 0.00 0.00 0.00 0.00 0.00 0.00 0.00 0.00 0.00 0.00 0.00 0.00 0.00 0.00 0.00 0.00 0.00 0.00 0.00 0.00 0.00 0.00 0.00 0.00 0.00 0.00 0.00 0.00 0.00 0.00 0.00 0.00 0.00
0.87 1.12 1.35 1.36 1.21 0.83 0.50 0.29 0.16 0.06 0.01 0.00 0.00 0.00 0.00 0.00 0.00 0.00 0.00 0.00 0.00 0.00 0.00 0.00 0.00 0.00 0.00 0.01 0.01 0.01 0.00 0.00 0.00 0.00 0.00 0.00 0.00 0.00 0.00 0.00 0.00 0.00 0.00 0.00 0.00 0.00 0.00
1.00 1.15 1.27 1.16 0.94 0.65 0.43 0.24 0.07 0.02 0.00 0.00 0.00 0.00 0.00 0.00 0.00 0.00 0.00 0.00 0.00 0.00 0.00 0.00 0.00 0.00 0.00 0.01 0.02 0.01 0.00 0.00 0.00 0.00 0.00 0.00 0.01 0.00 0.00 0.01 0.00 0.00 0.00 0.00 0.00 0.00 0.00
0.42 0.55 0.77 0.72 0.51 0.40 0.37 0.19 0.03 0.01 0.00 0.00 0.00 0.00 0.00 0.00 0.00 0.00 0.00 0.00 0.00 0.00 0.00 0.00 0.00 0.00 0.00 0.00 0.00 0.00 0.00 0.00 0.00 0.00 0.00 0.00 0.00 0.00 0.00 0.00 0.00 0.00 0.00 0.00 0.00 0.00 0.00